Location: Brompton
(51.4000°N, 0.5333°E)
Time: 09:06:22
(UTC+00:00)

Cosmos 2112 Rocket - Pass Details

Date: 11 May 2021
Orbit: 755 x 788 km, 74.1° (Epoch: 12 June)

Event Time Altitude Azimuth Distance (km) Brightness Sun altitude
Rises 21:37:08 0° 336° (NNW) 3,286 9.1 -14.3°
Reaches altitude 10° 21:39:34 10° 340° (NNW) 2,357 7.8 -14.5°
Maximum altitude 21:44:53 61° 61° (ENE) 894 4.3 -14.9°
Enters shadow 21:48:12 23° 135° (SE) 1,626 5.1 -15.2°
